Regional Weather Roundup
Issued by NWS

Home | Current Version | Previous Version | Text Only | Print | Product List | Glossary Off
Versions: 1 2 3 4 5 6 7 8 9 10 11 12 13 14 15 16 17 18 19 20 21 22 23 24 25 26 27 28 29 30 31 32 33 34 35 36 37 38 39 40 41 42 43 44 45 46 47 48 49 50

000
ASUS44 KMEG 261800
RWRTN
TENNESSEE HOURLY STATE WEATHER ROUNDUP
NATIONAL WEATHER SERVICE MEMPHIS TN
1200 PM CST WED NOV 26 2014

TNZ002-004-019-021-049-052-054-088>092-261900-
WEST TENNESSEE

CITY           SKY/WX    TMP DP  RH WIND       PRES   REMARKS
MEMPHIS INTL   CLOUDY    50  29  44 S16G24    30.01F
NWS MEMPHIS      N/A    N/A N/A N/A MISG        N/A
JACKSON        CLOUDY    47  24  40 S5        30.05F
DYERSBURG      FAIR      45  23  42 SE10      30.04F
UNION CITY     MOSUNNY   43  28  56 SE9       30.04F
PARIS          SUNNY     43  27  52 SE6       30.07F
LEXINGTON      SUNNY     46  25  42 S8        30.06F
SAVANNAH       SUNNY     48  27  43 S9        30.08F
$$

TNZ008-025-027-028-033-062-065-066-261900-
NORTH MIDDLE TENNESSEE

CITY           SKY/WX    TMP DP  RH WIND       PRES   REMARKS
NASHVILLE      MOSUNNY   47  19  33 S5        30.10F
CLARKSVILLE    SUNNY     44  26  49 E3        30.08F
COOKEVILLE     SUNNY     45  28  53 S7        30.08F
CROSSVILLE     SUNNY     44  23  43 VRB5      30.05F
$$

TNZ061-075-076-078-094-096-097-261900-
SOUTH MIDDLE TENNESSEE

CITY           SKY/WX    TMP DP  RH WIND       PRES   REMARKS
TULLAHOMA      SUNNY     46  18  31 N5        30.10F
WINCHESTER     SUNNY     46  28  49 W6        30.11F
$$

TNZ017-018-042-046-047-261900-
NORTHEAST TENNESSEE

CITY           SKY/WX    TMP DP  RH WIND       PRES   REMARKS
TRI CITIES     CLOUDY    42  39  89 W6        30.02F
ELIZABETHTON   CLOUDY    39  37  93 CALM      30.01F
$$

TNZ012-013-036-069-073-074-261900-
CENTRAL EAST TENNESSEE

CITY           SKY/WX    TMP DP  RH WIND       PRES   REMARKS
KNOXVILLE      MOSUNNY   49  32  52 S5        30.05F
OAK RIDGE      SUNNY     52  27  38 VRB3      30.05F
GATLINBURG     CLEAR     52  30  43 W8        30.03F
$$

TNZ083-085-099-261900-
SOUTHEAST TENNESSEE

CITY           SKY/WX    TMP DP  RH WIND       PRES   REMARKS
CHATTANOOGA    MOSUNNY   51  23  33 W8        30.10F
$$

SKY/WX REPORTED AS FAIR MEANS FEW OR NO CLOUDS BELOW
12 THOUSAND FEET.



USA.gov is the U.S. government's official web portal to all federal, state and local government web resources and services.